Flag for Mexico Weather past 2 weeks in Tijuana, Baja California, Mexico

Now
51 °F

Mostly cloudy.


Feels Like: 48 °F
Forecast: 50 / 64 °F
Wind: 9 mph from Southeast

Location: Brown Field Municipal Airport

Current Time: Dec 18, 2014 at 7:05:20 AM

Latest Report: Dec 18, 2014 at 5:53 AM


Visibility: 10 mi

Pressure: 30.15 "Hg

Humidity: 80%

Dew point: 45 °F

Location of TijuanaLocation

Historic Weather in Tijuana — Graph

°F

Tijuana temperature yesterday

Maximum temperature yesterday: 62 °F (at 11:53 AM)
Minimum temperature yesterday: 49 °F (at 11:53 PM)
Average temperature yesterday: 56 °F

Past Weeks' High & Low Weather Summary

 TemperatureHumidityPressure
High80 °F (Dec 7, 12:53 PM)100% (Dec 9, 7:53 PM)30.21 "Hg (Dec 9, 7:53 PM)
Low43 °F (Dec 14, 6:53 AM)31% (Dec 7, 12:53 PM)29.90 "Hg (Dec 11, 3:53 PM)
Average59 °F80%30.04 "Hg
* Reported Dec 3 5:53 AM — Dec 18 5:53 AM, Tijuana, Weather by CustomWeather, © 2014

Note: Actual official high and low records may vary slightly from our data, if they occured in-between our weather recording intervals... More about our weather records

Advertising

Tijuana weather history for previous 24 hours

 ConditionsComfort  
Time TempWeatherWind HumidityBarometerVisibility
5:53 AM
Dec 18
51 °FMostly cloudy.9 mph80%30.15 "Hg10 mi
4:53 AM51 °FPassing clouds.7 mph80%30.14 "Hg10 mi
3:53 AM50 °FPassing clouds.7 mph83%30.13 "Hg10 mi
2:53 AM51 °FPassing clouds.7 mph80%30.13 "Hg9 mi
1:53 AM51 °FPassing clouds.7 mph80%30.12 "Hg10 mi
12:53 AM51 °FOvercast.7 mph83%30.12 "Hg9 mi
11:53 PM
Dec 17
49 °FPassing clouds.3 mph84%30.12 "Hg10 mi
10:53 PM51 °FPassing clouds.6 mph80%30.14 "Hg10 mi
9:53 PM52 °FPassing clouds.6 mph77%30.12 "Hg7 mi
8:53 PM51 °FClear.7 mph80%30.11 "Hg10 mi
7:53 PM55 °FPassing clouds.3 mph69%30.12 "Hg10 mi
6:53 PM57 °FClear.No wind62%30.11 "Hg10 mi
5:53 PM58 °FClear.5 mph60%30.11 "Hg10 mi
4:53 PM58 °FClear.6 mph62%30.10 "Hg10 mi
3:53 PM60 °FSunny.12 mph60%30.09 "Hg10 mi
2:53 PM61 °FPassing clouds.10 mph60%30.08 "Hg10 mi
1:53 PM62 °FBroken clouds.12 mph60%30.07 "Hg10 mi
12:53 PM62 °FBroken clouds.13 mph62%30.06 "Hg10 mi
11:53 AM62 °FBroken clouds.14 mph65%30.07 "Hg10 mi
10:53 AM60 °FPassing clouds.8 mph75%30.08 "Hg10 mi
9:53 AM59 °FPartly sunny.6 mph84%30.08 "Hg10 mi
8:53 AM57 °FPassing clouds.6 mph90%30.07 "Hg10 mi
7:53 AM54 °FPassing clouds.5 mph97%30.04 "Hg10 mi
7:00 AM54 °FRain. Fog.6 mph93%30.04 "Hg2 mi
Weather by CustomWeather, © 2014

See weather overviewHow to use our weather pages